Weather Roundup
Issued by NWS

Home | Current Version | Previous Version | Graphics & Text | Print | Product List | Glossary Off
Versions: 1 2 3 4 5 6 7 8 9 10 11 12 13 14 15 16 17 18 19 20 21 22 23 24 25 26 27 28 29 30 31 32 33 34 35 36 37 38 39 40 41 42 43 44 45 46 47 48 49 50

369
NZUS93 KARX 240759
HRRWXR

CURRENT HOURLY OBSERVATIONS ACROSS
MUCH OF THE UPPER MISSISSIPPI VALLEY
NATIONAL WEATHER SERVICE LA CROSSE WI
300 AM CDT FRI MAR 24 2017


...SOUTHEAST MINNESOTA...


CITY           SKY/WX    TMP DP  RH WIND       PRES   REMARKS
ROCHESTER      LGT RAIN  39  38  96 E6        29.82F FOG     WCI  35
ROCHESTER/MAYO CLOUDY    39  38  98 NE3       29.83F
WINONA         TSTM      37  37 100 N5        29.89R WCI  34
AUSTIN         RAIN      41  37  87 S3        29.82S
ALBERT LEA     MIX PCPN  39  39 100 E8        29.79F WCI  34
DODGE CENTER   HVY RAIN  37  36  93 NE7       29.82F WCI  32
PRESTON        CLOUDY    40  37  89 CALM      29.84R
OWATONNA       LGT RAIN  39  36  87 E5        29.84R
FARIBAULT      RAIN      37  36  93 NE6       29.83F WCI  33
$$

...ELSEWHERE IN MINNESOTA...


CITY           SKY/WX    TMP DP  RH WIND       PRES   REMARKS
MINNEAPOLIS    CLOUDY    39  36  89 SE7       29.85S FOG     WCI  34
INTNL FALLS    CLOUDY    34  31  88 W5        29.90R FOG     WCI  30
DULUTH         DRIZZLE   33  31  92 CALM      29.90R FOG
RED WING       CLOUDY    39  34  81 E5        29.86R
REDWOOD FALLS  LGT RAIN  39  37  92 NE5       29.80F FOG
MANKATO        LGT RAIN  39  37  92 E9        29.80F FOG     WCI  33
WORTHINGTON    LGT RAIN  37  36  96 NE9       29.74F FOG     WCI  30
FAIRMONT       RAIN      39  38  96 E5        29.82R FOG
$$

...SOUTHWEST WISCONSIN...


CITY           SKY/WX    TMP DP  RH WIND       PRES   REMARKS
LA CROSSE      LGT RAIN  41  39  93 N7        29.85R
PRAIRIE DU CHI CLOUDY    42  35  76 E6        29.84F
BOSCOBEL       CLOUDY    44  37  76 CALM      29.85F
LONE ROCK      NOT AVBL
PLATTEVILLE    CLOUDY    43  38  83 SE9       29.86F
FORT MC COY    LGT RAIN  39  38  94 CALM      29.85F
MAUSTON-NEW LI CLOUDY    38  37  93 CALM      29.83F FOG
VIROQUA        FAIR      40  37  90 S13G18    29.81F WCI  33
WIS DELLS      CLOUDY    44  36  73 S16G22    29.84F
$$

...ELSEWHERE IN WISCONSIN...


CITY           SKY/WX    TMP DP  RH WIND       PRES   REMARKS
MILWAUKEE      CLOUDY    48  36  63 SW10      29.90F
MADISON        CLOUDY    44  36  73 S9        29.86F
GREEN BAY      RAIN      37  35  92 N5        29.91F FOG     WCI  33
EAU CLAIRE     NOT AVBL
BLACK RVR FLS  CLOUDY    40  35  80 NE6       29.85F
MEDFORD        DRIZZLE   34  33  98 SE3       29.86F
WAUSAU         LGT RAIN  34  34 100 E5        29.86F FOG     WCI  30
WIS RAPIDS     LGT RAIN  39  36  89 NE3       29.87F
MARSHFIELD     CLOUDY    36  33  89 NE6       29.85F WCI  31
RICE LAKE      CLOUDY    36  36  99 CALM      29.87F FOG
$$

...NORTHEAST IOWA...


CITY           SKY/WX    TMP DP  RH WIND       PRES   REMARKS
WATERLOO       PTCLDY    43  39  86 SE6       29.78F
DUBUQUE        CLOUDY    42  38  85 S13       29.83F
DECORAH        CLOUDY    43  39  87 VRB7      29.79R
MASON CITY     CLOUDY    40  37  89 NE7       29.80F
CHARLES CITY   CLOUDY    41  41 100 CALM      29.81R
OELWEIN        CLOUDY    39  39 100 SE13      29.79F WCI  32
$$

...ELSEWHERE IN IOWA...


CITY           SKY/WX    TMP DP  RH WIND       PRES   REMARKS
DES MOINES     CLOUDY    57  44  62 SE8       29.75F
IOWA CITY      PTCLDY    42  39  89 CALM      29.86S
FORT DODGE     CLOUDY    46  43  87 SE3       29.73F
MARSHALLTOWN   CLOUDY    46  40  79 SE13      29.77S
CEDAR RAPIDS   CLOUDY    43  41  93 SE9       29.81F
$$

...NORTHERN ILLINOIS...


CITY           SKY/WX    TMP DP  RH WIND       PRES   REMARKS
CHICAGO-OHARE  MOCLDY    47  36  65 S13       29.95F
CHICAGO-MIDWAY MOCLDY    48  36  63 VRB5      29.98R
MOLINE         PTCLDY    52  43  71 S8        29.87F
ROCKFORD       CLOUDY    45  37  73 S8G21     29.92F
PEORIA         CLOUDY    47  41  80 S12       29.94S
$$

NOTE: "FAIR" INDICATES FEW OR NO CLOUDS BELOW 12,000 FEET WITH NO
SIGNIFICANT WEATHER AND/OR OBSTRUCTIONS TO VISIBILITY. WIND
SPEEDS ARE IN MILES-PER-HOUR.




USA.gov is the U.S. government's official web portal to all federal, state and local government web resources and services.